Regional Weather Roundup
Issued by NWS

Home | Current Version | Previous Version | Text Only | Print | Product List | Glossary On
Versions: 1 2 3 4 5 6 7 8 9 10 11 12 13 14 15 16 17 18 19 20 21 22 23 24 25 26 27
000
ASUS45 KREV 231910
RWRNV
NEVADA REGIONAL WEATHER ROUNDUP
NATIONAL WEATHER SERVICE RENO NV
1100 AM PST THU FEB 23 2017

NOTE: "FAIR" INDICATES FEW OR NO CLOUDS BELOW 12,000 FEET WITH NO
SIGNIFICANT WEATHER AND/OR OBSTRUCTIONS TO VISIBILITY.

NVZ001-003-004-232000-
WESTERN NEVADA

CITY           SKY/WX    TMP DP  RH WIND       PRES   REMARKS
RENO           PTSUNNY   33  17  51 N14       30.05F
CARSON CITY    MIX PCPN  32  18  55 NW12      30.05S
MINDEN         LGT SNOW  28  18  64 SW6       30.04S
PYRAMID LAKE     N/A     32 N/A N/A N7          N/A
FALLON         PTSUNNY   31  23  72 SW9       30.06S
LOVELOCK       MOSUNNY   34  17  50 N10       30.04R
HAWTHORNE      PTSUNNY   36  12  38 NW15G23   30.01F
$$

NVZ002-CAZ072-073-232000-
NORTHERN AND CENTRAL SIERRA

CITY           SKY/WX    TMP DP  RH WIND       PRES   REMARKS
S. LAKE TAHOE  PTSUNNY   24  12  60 CALM      29.98S
SQUAW VLY 8000   N/A     16  14  93 NW5         N/A
SUSANVILLE     CLOUDY    32  19  59 SW3       30.09R
MAMMOTH LAKES  FAIR      26  -5  26 W8        29.94F
BRIDGEPORT       N/A     23   8  52 S8        29.92S
$$

NVZ030-031-036-232000-
NORTHERN NEVADA

CITY           SKY/WX    TMP DP  RH WIND       PRES   REMARKS
ELKO           CLOUDY    28  15  58 W10       29.91R
WINNEMUCCA     NOT AVBL
WENDOVER       CLOUDY    36  12  38 NW17G23   29.82R
$$

NVZ035-037-232000-
CENTRAL NEVADA

CITY           SKY/WX    TMP DP  RH WIND       PRES   REMARKS
ELY            CLOUDY    27  14  58 N8        29.85R
EUREKA           N/A     30  13  49 NW18G25   29.88S
$$

NVZ013-014-232000-
SOUTH CENTRAL NEVADA

CITY           SKY/WX    TMP DP  RH WIND       PRES   REMARKS
TONOPAH        MOSUNNY   32  10  40 NW25G35   29.94S
$$

NVZ017-020-022-232000-
SOUTHERN NEVADA

CITY           SKY/WX    TMP DP  RH WIND       PRES   REMARKS
LAS VEGAS      MOSUNNY   52   8  17 NW16G22   29.95S
N. LAS VEGAS   SUNNY     50   9  19 N17       29.96R
NELLIS AFB     SUNNY     52  11  19 W20       29.95F
HENDERSON      SUNNY     50  11  20 NE8       29.97F
MERCURY        MOSUNNY   45  17  32 S10       29.96F
$$




USA.gov is the U.S. government's official web portal to all federal, state and local government web resources and services.